カタログに戻る

FREGAT R/B

運用中HEO
NORAD 44553·ROCKET BODY·🇷🇺 Russia

打ち上げ Sep 26, 2019 から Plesetsk Cosmodrome

Loading…

次のパス (今後24時間)

TLE

最新Source: Space-Track

元期: Sep 13, 2026, 02:17 UTC

1 44553U 19065B   26256.09537979 -.00000935  00000-0  00000+0 0  9999
2 44553  63.3334 144.2291 6761537 260.4991  23.2551  2.01544382 51276

AllMySatでFREGAT R/Bをリアルタイム追跡

Download on the App Store